Time,TemperatureF,DewpointF,PressureIn,WindDirection,WindDirectionDegrees,WindSpeedMPH,WindSpeedGustMPH,Humidity,HourlyPrecipIn,Conditions,Clouds,dailyrainin,SoftwareType,DateUTC
2013-11-10 00:14:00,38.1,37.0,30.25,SW,224,0.0,0.0,96,0.00,,,0.00,weatherlink.com 1.10,2013-11-10 06:14:00,
2013-11-10 00:29:00,37.9,37.0,30.25,SW,224,0.0,0.0,95,0.00,,,0.00,weatherlink.com 1.10,2013-11-10 06:29:00,
2013-11-10 00:44:00,37.7,36.0,30.25,SW,224,0.0,0.0,95,0.00,,,0.00,weatherlink.com 1.10,2013-11-10 06:44:00,
2013-11-10 00:59:00,37.9,37.0,30.25,SW,224,0.0,0.0,96,0.00,,,0.00,weatherlink.com 1.10,2013-11-10 06:59:00,
2013-11-10 01:14:00,38.2,37.0,30.25,SW,224,0.0,0.0,96,0.00,,,0.00,weatherlink.com 1.10,2013-11-10 07:14:00,
2013-11-10 01:29:00,38.1,37.0,30.25,SW,224,0.0,0.0,96,0.00,,,0.00,weatherlink.com 1.10,2013-11-10 07:29:00,
2013-11-10 01:44:00,37.3,36.0,30.25,SW,224,0.0,0.0,95,0.00,,,0.00,weatherlink.com 1.10,2013-11-10 07:44:00,
2013-11-10 01:59:00,37.0,36.0,30.25,SW,224,0.0,0.0,95,0.00,,,0.00,weatherlink.com 1.10,2013-11-10 07:59:00,
2013-11-10 02:14:00,36.6,35.0,30.25,SW,224,0.0,0.0,95,0.00,,,0.00,weatherlink.com 1.10,2013-11-10 08:14:00,
2013-11-10 02:29:00,36.2,35.0,30.25,SW,224,0.0,0.0,95,0.00,,,0.00,weatherlink.com 1.10,2013-11-10 08:29:00,
2013-11-10 02:44:00,36.0,35.0,30.26,SW,224,0.0,0.0,96,0.00,,,0.00,weatherlink.com 1.10,2013-11-10 08:44:00,
2013-11-10 02:59:00,35.6,35.0,30.27,SW,224,0.0,0.0,96,0.00,,,0.00,weatherlink.com 1.10,2013-11-10 08:59:00,
2013-11-10 03:14:00,35.3,34.0,30.27,SW,224,0.0,0.0,96,0.00,,,0.00,weatherlink.com 1.10,2013-11-10 09:14:00,
2013-11-10 03:44:00,35.1,34.0,30.26,SW,224,0.0,0.0,96,0.00,,,0.00,weatherlink.com 1.10,2013-11-10 09:44:00,
2013-11-10 03:59:00,35.0,34.0,30.27,SW,224,0.0,0.0,96,0.00,,,0.00,weatherlink.com 1.10,2013-11-10 09:59:00,
2013-11-10 04:14:00,34.9,34.0,30.28,SW,224,0.0,0.0,96,0.00,,,0.00,weatherlink.com 1.10,2013-11-10 10:14:00,
2013-11-10 04:29:00,34.7,34.0,30.28,SW,224,0.0,0.0,96,0.00,,,0.00,weatherlink.com 1.10,2013-11-10 10:29:00,
2013-11-10 04:44:00,34.6,34.0,30.29,SW,224,0.0,0.0,96,0.00,,,0.00,weatherlink.com 1.10,2013-11-10 10:44:00,
2013-11-10 04:59:00,34.4,33.0,30.29,SW,224,0.0,0.0,96,0.00,,,0.00,weatherlink.com 1.10,2013-11-10 10:59:00,
2013-11-10 05:14:00,34.0,33.0,30.30,SW,224,0.0,0.0,96,0.00,,,0.00,weatherlink.com 1.10,2013-11-10 11:14:00,
2013-11-10 05:29:00,33.9,33.0,30.31,SW,224,0.0,0.0,96,0.00,,,0.00,weatherlink.com 1.10,2013-11-10 11:29:00,
2013-11-10 05:44:00,33.9,33.0,30.31,SW,224,0.0,0.0,96,0.00,,,0.00,weatherlink.com 1.10,2013-11-10 11:44:00,
2013-11-10 05:59:00,33.6,33.0,30.32,SW,224,0.0,0.0,96,0.00,,,0.00,weatherlink.com 1.10,2013-11-10 11:59:00,
2013-11-10 06:14:00,33.4,32.0,30.33,SW,224,0.0,0.0,96,0.00,,,0.00,weatherlink.com 1.10,2013-11-10 12:14:00,
2013-11-10 06:30:00,33.2,32.0,30.34,SW,224,0.0,0.0,96,0.00,,,0.00,weatherlink.com 1.10,2013-11-10 12:30:00,
2013-11-10 06:45:00,33.1,32.0,30.34,SW,224,0.0,0.0,97,0.00,,,0.00,weatherlink.com 1.10,2013-11-10 12:45:00,
2013-11-10 07:00:00,33.2,33.0,30.35,SW,224,0.0,0.0,97,0.00,,,0.00,weatherlink.com 1.10,2013-11-10 13:00:00,
2013-11-10 07:15:00,33.6,33.0,30.35,SW,224,0.0,0.0,97,0.00,,,0.00,weatherlink.com 1.10,2013-11-10 13:15:00,
2013-11-10 07:30:00,34.8,34.0,30.36,SW,224,0.0,0.0,97,0.00,,,0.00,weatherlink.com 1.10,2013-11-10 13:30:00,
2013-11-10 07:45:00,37.5,37.0,30.37,WNW,294,0.0,2.0,98,0.00,,,0.00,weatherlink.com 1.10,2013-11-10 13:45:00,
2013-11-10 08:00:00,42.0,42.0,30.37,NE,34,1.0,3.0,98,0.00,,,0.00,weatherlink.com 1.10,2013-11-10 14:00:00,
2013-11-10 08:15:00,45.8,45.0,30.38,NNE,25,0.0,4.0,98,0.00,,,0.00,weatherlink.com 1.10,2013-11-10 14:15:00,
2013-11-10 08:30:00,48.8,44.0,30.38,North,355,1.0,5.0,83,0.00,,,0.00,weatherlink.com 1.10,2013-11-10 14:30:00,
2013-11-10 08:45:00,50.1,42.0,30.38,ENE,69,3.0,9.0,75,0.00,,,0.00,weatherlink.com 1.10,2013-11-10 14:45:00,
2013-11-10 09:00:00,50.7,42.0,30.39,NNE,32,3.0,8.0,73,0.00,,,0.00,weatherlink.com 1.10,2013-11-10 15:00:00,
2013-11-10 09:15:00,51.3,42.0,30.39,North,357,5.0,8.0,70,0.00,,,0.00,weatherlink.com 1.10,2013-11-10 15:15:00,
2013-11-10 09:30:00,52.3,40.0,30.39,East,99,4.0,8.0,64,0.00,,,0.00,weatherlink.com 1.10,2013-11-10 15:30:00,
2013-11-10 09:45:00,53.2,38.0,30.39,NW,319,3.0,9.0,56,0.00,,,0.00,weatherlink.com 1.10,2013-11-10 15:45:00,
2013-11-10 10:00:00,53.5,38.0,30.39,North,359,3.0,12.0,56,0.00,,,0.00,weatherlink.com 1.10,2013-11-10 16:00:00,
2013-11-10 10:15:00,54.2,37.0,30.39,SW,236,2.0,10.0,53,0.00,,,0.00,weatherlink.com 1.10,2013-11-10 16:15:00,
2013-11-10 10:30:00,54.7,37.0,30.39,NNW,330,7.0,7.0,51,0.00,,,0.00,weatherlink.com 1.10,2013-11-10 16:30:00,
2013-11-10 10:45:00,55.5,37.0,30.39,WNW,290,3.0,10.0,51,0.00,,,0.00,weatherlink.com 1.10,2013-11-10 16:45:00,
2013-11-10 11:00:00,56.0,37.0,30.38,NNE,30,4.0,9.0,50,0.00,,,0.00,weatherlink.com 1.10,2013-11-10 17:00:00,
2013-11-10 11:15:00,56.7,35.0,30.38,NE,44,2.0,6.0,45,0.00,,,0.00,weatherlink.com 1.10,2013-11-10 17:15:00,
2013-11-10 11:31:00,57.2,35.0,30.37,West,272,4.0,9.0,44,0.00,,,0.00,weatherlink.com 1.10,2013-11-10 17:31:00,
2013-11-10 11:46:00,58.0,35.0,30.37,NW,322,4.0,8.0,42,0.00,,,0.00,weatherlink.com 1.10,2013-11-10 17:46:00,
2013-11-10 12:01:00,59.1,37.0,30.36,NE,43,4.0,7.0,44,0.00,,,0.00,weatherlink.com 1.10,2013-11-10 18:01:00,
2013-11-10 12:16:00,58.9,33.0,30.36,North,9,2.0,9.0,38,0.00,,,0.00,weatherlink.com 1.10,2013-11-10 18:16:00,
2013-11-10 12:31:00,59.5,34.0,30.35,NE,41,3.0,9.0,39,0.00,,,0.00,weatherlink.com 1.10,2013-11-10 18:31:00,
2013-11-10 12:46:00,59.7,34.0,30.34,East,89,0.0,9.0,39,0.00,,,0.00,weatherlink.com 1.10,2013-11-10 18:46:00,
2013-11-10 13:01:00,60.6,34.0,30.34,North,354,2.0,7.0,37,0.00,,,0.00,weatherlink.com 1.10,2013-11-10 19:01:00,
2013-11-10 13:16:00,60.9,32.0,30.33,NW,312,1.0,5.0,34,0.00,,,0.00,weatherlink.com 1.10,2013-11-10 19:16:00,
2013-11-10 13:31:00,61.1,35.0,30.33,ENE,57,2.0,7.0,38,0.00,,,0.00,weatherlink.com 1.10,2013-11-10 19:31:00,
2013-11-10 13:46:00,61.1,33.0,30.33,NNE,14,1.0,8.0,35,0.00,,,0.00,weatherlink.com 1.10,2013-11-10 19:46:00,
2013-11-10 14:01:00,60.7,33.0,30.33,NNE,14,0.0,8.0,35,0.00,,,0.00,weatherlink.com 1.10,2013-11-10 20:01:00,
2013-11-10 14:16:00,60.3,32.0,30.32,East,86,2.0,8.0,35,0.00,,,0.00,weatherlink.com 1.10,2013-11-10 20:16:00,
2013-11-10 14:31:00,60.1,33.0,30.32,ENE,68,5.0,7.0,36,0.00,,,0.00,weatherlink.com 1.10,2013-11-10 20:31:00,
2013-11-10 14:46:00,59.8,31.0,30.33,NE,41,2.0,7.0,34,0.00,,,0.00,weatherlink.com 1.10,2013-11-10 20:46:00,
2013-11-10 15:01:00,59.6,31.0,30.33,NNW,343,0.0,5.0,34,0.00,,,0.00,weatherlink.com 1.10,2013-11-10 21:01:00,
2013-11-10 15:16:00,59.6,32.0,30.33,ENE,60,4.0,6.0,35,0.00,,,0.00,weatherlink.com 1.10,2013-11-10 21:16:00,
2013-11-10 15:31:00,59.2,31.0,30.33,NNW,332,2.0,6.0,34,0.00,,,0.00,weatherlink.com 1.10,2013-11-10 21:31:00,
2013-11-10 15:46:00,58.8,32.0,30.33,NNW,344,0.0,2.0,36,0.00,,,0.00,weatherlink.com 1.10,2013-11-10 21:46:00,
2013-11-10 16:01:00,58.0,32.0,30.33,NNE,28,1.0,3.0,38,0.00,,,0.00,weatherlink.com 1.10,2013-11-10 22:01:00,
2013-11-10 16:16:00,57.1,35.0,30.33,ENE,59,0.0,2.0,44,0.00,,,0.00,weatherlink.com 1.10,2013-11-10 22:16:00,
2013-11-10 16:31:00,55.3,38.0,30.33,NE,40,0.0,1.0,53,0.00,,,0.00,weatherlink.com 1.10,2013-11-10 22:31:00,
2013-11-10 16:46:00,52.4,36.0,30.33,NE,40,0.0,0.0,55,0.00,,,0.00,weatherlink.com 1.10,2013-11-10 22:46:00,
2013-11-10 17:01:00,49.6,38.0,30.33,NE,40,0.0,0.0,65,0.00,,,0.00,weatherlink.com 1.10,2013-11-10 23:01:00,
2013-11-10 17:17:00,46.7,38.0,30.33,NE,40,0.0,0.0,73,0.00,,,0.00,weatherlink.com 1.10,2013-11-10 23:17:00,
2013-11-10 17:31:00,44.7,38.0,30.33,NE,40,0.0,0.0,76,0.00,,,0.00,weatherlink.com 1.10,2013-11-10 23:31:00,
2013-11-10 17:46:00,43.0,37.0,30.33,NE,40,0.0,0.0,78,0.00,,,0.00,weatherlink.com 1.10,2013-11-10 23:46:00,
2013-11-10 18:01:00,41.7,36.0,30.34,NE,40,0.0,0.0,80,0.00,,,0.00,weatherlink.com 1.10,2013-11-11 00:01:00,
2013-11-10 18:16:00,40.7,36.0,30.34,NE,40,0.0,0.0,82,0.00,,,0.00,weatherlink.com 1.10,2013-11-11 00:16:00,
2013-11-10 18:31:00,39.7,35.0,30.34,NE,40,0.0,0.0,84,0.00,,,0.00,weatherlink.com 1.10,2013-11-11 00:31:00,
2013-11-10 18:46:00,38.8,35.0,30.34,NE,40,0.0,0.0,86,0.00,,,0.00,weatherlink.com 1.10,2013-11-11 00:46:00,
2013-11-10 19:01:00,38.1,35.0,30.34,NE,40,0.0,0.0,87,0.00,,,0.00,weatherlink.com 1.10,2013-11-11 01:01:00,
2013-11-10 19:16:00,37.5,34.0,30.34,NE,40,0.0,0.0,88,0.00,,,0.00,weatherlink.com 1.10,2013-11-11 01:16:00,
2013-11-10 19:31:00,36.8,34.0,30.34,NE,40,0.0,0.0,88,0.00,,,0.00,weatherlink.com 1.10,2013-11-11 01:31:00,
2013-11-10 19:46:00,36.3,33.0,30.34,NE,40,0.0,0.0,89,0.00,,,0.00,weatherlink.com 1.10,2013-11-11 01:46:00,
2013-11-10 20:01:00,35.8,33.0,30.34,NE,40,0.0,0.0,90,0.00,,,0.00,weatherlink.com 1.10,2013-11-11 02:01:00,
2013-11-10 20:17:00,35.3,33.0,30.34,NE,40,0.0,0.0,90,0.00,,,0.00,weatherlink.com 1.10,2013-11-11 02:17:00,
2013-11-10 20:31:00,34.9,32.0,30.34,NE,40,0.0,0.0,90,0.00,,,0.00,weatherlink.com 1.10,2013-11-11 02:31:00,
2013-11-10 20:46:00,34.6,32.0,30.34,NE,40,0.0,0.0,91,0.00,,,0.00,weatherlink.com 1.10,2013-11-11 02:46:00,
2013-11-10 21:01:00,34.3,32.0,30.34,NE,40,0.0,0.0,92,0.00,,,0.00,weatherlink.com 1.10,2013-11-11 03:01:00,
2013-11-10 21:16:00,33.9,32.0,30.34,NE,40,0.0,0.0,92,0.00,,,0.00,weatherlink.com 1.10,2013-11-11 03:16:00,
2013-11-10 21:31:00,33.6,32.0,30.34,NE,40,0.0,0.0,92,0.00,,,0.00,weatherlink.com 1.10,2013-11-11 03:31:00,
2013-11-10 21:46:00,33.3,32.0,30.34,NE,40,0.0,0.0,93,0.00,,,0.00,weatherlink.com 1.10,2013-11-11 03:46:00,
2013-11-10 22:01:00,33.0,31.0,30.33,NE,40,0.0,0.0,93,0.00,,,0.00,weatherlink.com 1.10,2013-11-11 04:01:00,
2013-11-10 22:16:00,32.9,31.0,30.34,NE,40,0.0,0.0,94,0.00,,,0.00,weatherlink.com 1.10,2013-11-11 04:16:00,
2013-11-10 22:31:00,32.8,31.0,30.34,NE,40,0.0,0.0,94,0.00,,,0.00,weatherlink.com 1.10,2013-11-11 04:31:00,
2013-11-10 22:46:00,32.4,31.0,30.33,NE,40,0.0,0.0,94,0.00,,,0.00,weatherlink.com 1.10,2013-11-11 04:46:00,
2013-11-10 23:01:00,32.0,31.0,30.33,NE,40,0.0,0.0,94,0.00,,,0.00,weatherlink.com 1.10,2013-11-11 05:01:00,
2013-11-10 23:16:00,31.8,30.0,30.33,NE,40,0.0,0.0,94,0.00,,,0.00,weatherlink.com 1.10,2013-11-11 05:16:00,
2013-11-10 23:31:00,31.5,30.0,30.33,NE,40,0.0,0.0,94,0.00,,,0.00,weatherlink.com 1.10,2013-11-11 05:31:00,
2013-11-10 23:46:00,31.3,30.0,30.33,NE,40,0.0,0.0,95,0.00,,,0.00,weatherlink.com 1.10,2013-11-11 05:46:00,